CAPE
0 1 3 1 1 0 1 0 1 1 1 0 0 0 0 0 0 0 0 0 81 851 668 938 935 1099 983 1140 483 562 748 396 113 211 243 210 177 191 124 57 95 435 445 225 83
0 1 1 1 2 2 1 1 1 1 1 0 0 0 0 0 0 0 0 381 464 1124 753 893 1127 1194 1505 563 0 332 566 143 268 376 254 408 92 93 74 67 100 290 265 99 69
0 0 0 1 2 1 1 1 1 1 0 0 0 0 0 0 0 0 796 900 1059 717 860 672 1164 1644 1492 138 0 214 382 110 386 233 252 383 78 155 64 88 98 229 139 45 41
2 2 2 1 1 3 2 1 1 0 0 0 0 0 0 0 0 0 872 584 1144 252 1023 1033 745 916 793 552 492 79 332 68 136 110 174 268 56 151 113 125 94 110 82 0 23
3 2 0 0 1 2 2 2 1 0 0 0 0 0 0 0 0 0 1226 338 0 445 1162 813 327 52 393 439 226 170 135 149 99 198 136 78 99 99 118 134 79 51 24 0 0
1 0 1 0 0 2 0 1 0 0 0 0 0 1 0 0 0 0 0 0 381 933 836 595 829 0 279 0 316 185 94 77 217 49 75 97 106 88 62 62 165 52 0 0 7
4 0 0 1 3 1 0 0 0 0 0 0 0 0 0 0 0 0 2 200 501 853 414 346 592 702 789 116 128 185 6 103 145 157 171 115 108 350 100 76 74 53 43 23 22
4 0 0 2 1 1 0 0 0 0 0 0 0 0 0 0 0 5 59 439 678 431 337 556 588 574 661 299 317 123 54 16 98 107 105 108 14 53 148 108 91 94 119 56 41
2 1 1 0 2 0 0 0 0 0 0 0 0 0 0 0 0 0 228 411 348 403 539 454 369 595 570 317 249 150 144 122 104 98 235 274 0 5 377 180 141 112 102 98 78
2 2 1 0 1 0 0 0 0 0 0 0 0 0 0 0 0 42 140 255 345 408 410 398 619 522 292 293 110 5 0 0 0 66 347 181 298 405 469 210 251 78 170 99 104
4 4 1 1 0 0 0 0 0 0 0 0 0 0 4 108 88 252 2 282 221 355 485 212 211 478 270 127 50 11 55 121 192 111 142 261 146 530 4 265 132 62 79 100 64
5 4 0 1 0 0 0 0 0 0 0 0 0 2 405 349 386 241 101 268 377 438 375 151 77 222 279 154 75 84 16 342 171 186 109 228 228 456 590 902 238 103 126 124 95
4 1 1 0 0 0 0 0 0 0 0 0 0 25 445 330 279 215 310 420 547 0 4 56 63 316 270 253 231 26 16 221 248 209 633 256 671 4 118 578 655 444 386 230 174
4 2 0 0 0 0 0 0 0 0 0 0 0 0 621 454 559 427 543 632 576 13 394 552 528 392 136 118 109 69 0 24 129 119 531 300 242 19 15 149 528 559 547 408 306
4 3 0 1 0 0 0 0 0 0 0 0 0 28 721 657 545 606 504 469 708 636 460 845 375 439 260 203 87 148 5 86 182 404 333 6 103 446 10 150 215 736 639 515 536
2 2 0 0 0 0 0 0 0 0 0 0 0 0 8 434 80 394 765 659 733 753 576 597 461 371 381 243 105 132 169 365 309 131 185 25 0 156 270 244 60 550 669 475 615
0 0 0 0 0 0 0 0 0 0 0 0 0 0 0 81 50 0 332 982 733 765 475 418 553 414 419 421 307 324 305 225 338 130 351 113 6 8 53 18 160 364 314 698 878
0 0 0 0 0 0 0 0 0 0 0 0 0 0 0 0 0 2 0 150 381 364 305 463 299 330 399 203 278 563 405 236 416 84 365 173 142 11 28 30 35 979 1077 1103 965
0 0 0 0 0 0 0 0 0 0 0 0 0 0 0 0 0 0 0 0 70 158 408 258 151 0 237 268 396 81 1 14 14 39 139 197 93 47 2 20 774 1251 1452 1776 2234
0 0 0 0 0 0 0 0 0 0 0 0 0 0 0 0 0 0 0 0 0 0 296 58 1 0 169 64 0 0 0 0 0 49 125 207 231 86 118 39 0 339 1536 2016 1898
0 0 0 0 0 0 0 0 0 0 0 0 0 0 0 0 0 0 0 0 0 0 0 0 0 0 0 0 0 0 0 0 0 0 39 13 35 293 478 0 4 69 1324 1055 1027
0 0 0 0 0 0 0 0 0 0 0 0 0 0 0 0 0 0 0 0 0 0 0 0 0 0 0 0 0 0 0 0 1 3 1 1 246 1193 725 796 994 949 820 518 465
0 0 0 0 0 0 0 0 0 0 0 0 0 0 0 0 0 0 0 0 0 0 0 0 0 0 0 0 0 13 0 0 0 0 0 0 118 1522 1834 1373 1011 881 426 228 287
11 0 0 0 0 0 0 0 0 0 0 0 0 0 0 0 0 0 0 0 0 0 0 0 0 0 0 0 0 0 0 0 0 2 2 1 668 1449 1438 1078 1111 740 351 307 268
1 0 0 0 0 0 0 0 0 0 0 0 0 0 0 0 0 0 0 0 0 67 0 0 0 0 0 0 0 0 0 0 4 0 0 0 0 769 1403 1038 1098 948 905 801 576
0 0 0 0 0 0 0 0 0 0 0 0 0 0 0 0 0 0 0 11 25 8 10 24 67 21 1 0 0 0 0 0 0 0 0 1 1 1362 1373 949 1081 1151 1146 1057 1131
0 0 0 0 0 0 0 0 0 0 0 0 0 0 0 1 0 0 0 0 0 0 1 5 19 36 6 15 53 37 74 20 20 1 0 0 290 802 0 0 825 1319 1223 1303 1068
CIN
-0 -0 -0 -0 -0 -0 -0 -0 -0 -0 -0 -0 -0 -0 -0 -0 -0 -0 -0 -0 -93 -359 -313 -42 -56 -42 -29 -6 -64 -102 -46 -3 -43 -11 -22 -31 -21 -20 -47 -44 -9 -0 -34 -61 -96
-0 -0 -0 -0 -0 -0 -0 -0 -0 -0 -0 -0 -0 -0 -0 -0 -0 -0 -0 -429 -406 -332 -77 -26 -6 -28 -1 -23 -0 -155 -17 -37 -9 -14 -24 -2 -61 -57 -37 -36 -42 -2 -30 -90 -72
-0 -0 -0 -0 -0 -0 -0 -0 -0 -0 -0 -0 -0 -0 -0 -0 -0 -0 -389 -391 -375 -346 -77 -53 -43 -11 -1 -320 -0 -257 -148 -35 -4 -29 -21 -11 -11 -23 -3 -37 -19 -29 -69 -90 -64
-0 -0 -0 -0 -0 -0 -0 -0 -0 -0 -0 -0 -0 -0 -0 -0 -0 -0 -442 -430 -358 -207 -63 -0 -6 -91 -30 -48 -189 -102 -44 -4 -5 -23 -30 -32 -8 -23 -45 -16 -29 -51 -76 -0 -52
-0 -0 -0 -0 -0 -0 -0 -0 -0 -0 -0 -0 -0 -0 -0 -0 -0 -0 -401 -302 -0 -130 -24 -0 -82 -144 -185 -27 -138 -62 -3 -3 -10 -3 -29 -40 -12 -60 -43 -24 -39 -46 -44 -0 -0
-0 -0 -0 -0 -0 -0 -0 -0 -0 -0 -0 -0 -0 -0 -0 -0 -0 -0 -0 -0 -55 -44 -1 -19 -31 -0 -154 -0 -124 -29 -19 -2 -0 -3 -13 -47 -57 -45 -23 -48 -24 -85 -0 -0 -0
-0 -0 -0 -0 -0 -0 -0 -0 -0 -0 -0 -0 -0 -0 -0 -0 -0 -0 -6 -69 -20 -6 -0 -9 -24 -2 -11 -52 -41 -44 -0 -0 -0 -2 -10 -2 -1 -2 -20 -63 -78 -77 -67 -48 -1
-0 -0 -0 -0 -0 -0 -0 -0 -0 -0 -0 -0 -0 -0 -0 -0 -0 -63 -62 -12 -8 -37 -41 -32 -13 -1 -15 -63 -6 -2 -55 -95 -10 -0 -7 -56 -184 -67 -13 -38 -52 -47 -25 -33 -69
-0 -0 -0 -0 -0 -0 -0 -0 -0 -0 -0 -0 -0 -0 -0 -0 -0 -0 -21 -1 -18 -30 -32 -24 -31 -9 -11 -2 -11 -121 -89 -47 -14 -1 -35 -73 -0 -73 -10 -20 -20 -21 -25 -18 -25
-0 -0 -0 -0 -0 -0 -0 -0 -0 -0 -0 -0 -0 -0 -0 -0 -0 -32 -30 -10 -14 -12 -14 -9 -2 -7 -4 -40 -37 -141 -0 -0 -8 -6 -1 -8 -78 -34 -5 -6 -1 -11 -6 -11 -17
-0 -0 -0 -0 -0 -0 -0 -0 -0 -0 -0 -0 -0 -0 -116 -38 -59 -23 -3 -27 -18 -1 -95 -32 -18 -6 -7 -84 -185 -87 -52 -14 -4 -38 -0 -9 -12 -67 -75 -104 -4 -10 -9 -14 -25
-0 -0 -0 -0 -0 -0 -0 -0 -0 -0 -0 -0 -0 -24 -0 -33 -34 -39 -51 -9 -10 -36 -160 -39 -165 -98 -13 -66 -58 -64 -84 -39 -4 -53 -6 -2 -1 -20 -33 -8 -6 -3 -3 -7 -17
-0 -0 -0 -0 -0 -0 -0 -0 -0 -0 -0 -0 -0 -87 -10 -31 -25 -36 -28 -11 -38 -19 -77 -186 -251 -48 -16 -2 -2 -108 -109 -65 -6 -12 -14 -67 -7 -174 -162 -13 -1 -13 -3 -9 -5
-0 -0 -0 -0 -0 -0 -0 -0 -0 -0 -0 -0 -0 -0 -5 -8 -1 -1 -14 -3 -119 -45 -112 -45 -4 -3 -1 -2 -10 -73 -0 -219 -132 -14 -26 -176 -41 -361 -171 -97 -5 -1 -0 -7 -6
-0 -0 -0 -0 -0 -0 -0 -0 -0 -0 -0 -0 -0 -110 -2 -6 -4 -4 -0 -0 -2 -44 -30 -49 -45 -6 -2 -7 -1 -66 -39 -177 -151 -37 -6 -140 -9 -104 -210 -183 -239 -8 -1 -2 -2
-0 -0 -0 -0 -0 -0 -0 -0 -0 -0 -0 -0 -0 -0 -109 -8 -85 -26 -0 -3 -6 -0 -7 -0 -2 -14 -3 -6 -1 -7 -47 -35 -23 -18 -20 -134 -0 -52 -113 -163 -214 -8 -4 -3 -1
-0 -0 -0 -0 -0 -0 -0 -0 -0 -0 -0 -0 -0 -0 -0 -97 -81 -0 -4 -0 -0 -1 -1 -10 -0 -6 -23 -0 -0 -1 -0 -1 -2 -182 -24 -152 -131 -170 -333 -367 -124 -15 -17 -4 -2
-0 -0 -0 -0 -0 -0 -0 -0 -0 -0 -0 -0 -0 -0 -0 -0 -0 -13 -0 -19 -0 -1 -3 -1 -7 -0 -9 -243 -251 -9 -0 -0 -0 -0 -158 -275 -198 -76 -300 -247 -96 -17 -21 -27 -12
-0 -0 -0 -0 -0 -0 -0 -0 -0 -0 -0 -0 -0 -0 -0 -0 -0 -0 -0 -0 -10 -1 -1 -55 -38 -44 -9 -158 -71 -16 -1 -19 -8 -43 -1 -201 -86 -126 -133 -264 -73 -20 -45 -47 -85
-0 -0 -0 -0 -0 -0 -0 -0 -0 -0 -0 -0 -0 -0 -0 -0 -0 -0 -0 -0 -0 -0 -9 -237 -60 -0 -0 -6 -0 -0 -0 -0 -0 -16 -7 -1 -15 -124 -251 -146 -0 -209 -30 -109 -192
-0 -0 -0 -0 -0 -0 -0 -0 -0 -0 -0 -0 -0 -0 -0 -0 -0 -0 -0 -0 -0 -0 -0 -2 -0 -0 -0 -0 -0 -0 -0 -0 -0 -0 -1 -0 -2 -14 -166 -0 -222 -556 -100 -278 -355
-0 -0 -0 -0 -0 -0 -0 -0 -0 -0 -0 -0 -0 -0 -0 -0 -0 -0 -0 -0 -0 -0 -0 -0 -0 -0 -0 -0 -0 -0 -0 -0 -1 -1 -0 -0 -1 -10 -55 -230 -176 -175 -205 -408 -481
-0 -0 -0 -0 -0 -0 -0 -0 -0 -0 -0 -0 -0 -0 -0 -0 -0 -0 -0 -0 -0 -0 -0 -0 -0 -0 -0 -0 -0 -9 -0 -0 -0 -0 -0 -0 -4 -54 -82 -163 -184 -303 -427 -485 -470
-287 -0 -0 -0 -0 -0 -0 -0 -0 -0 -0 -0 -0 -0 -0 -0 -0 -0 -0 -0 -0 -0 -0 -0 -0 -0 -0 -0 -0 -0 -0 -0 -0 -0 -2 -0 -23 -30 -47 -131 -140 -269 -419 -413 -413
-118 -0 -0 -0 -0 -0 -0 -0 -0 -0 -0 -0 -0 -0 -0 -0 -0 -0 -0 -0 -0 -210 -0 -0 -0 -0 -0 -0 -0 -0 -0 -0 -2 -0 -0 -0 -0 -12 -34 -125 -109 -110 -260 -293 -334
-0 -0 -0 -0 -0 -0 -0 -0 -0 -0 -0 -0 -0 -0 -0 -0 -0 -0 -0 -0 -4 -13 -5 -2 -12 -15 -0 -0 -0 -0 -0 -0 -0 -0 -0 -2 -0 -21 -26 -117 -106 -82 -165 -192 -162
-0 -0 -0 -0 -0 -0 -0 -0 -0 -0 -0 -0 -0 -0 -0 -10 -0 -0 -0 -0 -0 -0 -9 -5 -8 -27 -58 -16 -0 -1 -2 -18 -9 -16 -0 -0 -4 -218 -0 -0 -6 -3 -62 -64 -84
Wind_Speed
14 14 13 13 13 12 12 12 11 11 12 12 13 12 13 14 17 8 10 6 3 12 3 11 6 10 10 15 9 14 5 6 4 3 14 12 12 11 15 13 11 15 19 20 19
14 14 13 13 13 12 12 13 12 11 12 12 12 12 12 12 9 14 7 11 12 11 9 7 5 5 9 8 8 7 7 3 3 2 9 12 15 14 11 12 10 12 22 20 18
14 14 14 13 14 13 12 13 12 11 12 12 12 12 12 12 10 1 4 13 11 12 16 5 6 13 13 11 2 4 5 12 13 10 9 15 12 13 13 13 10 20 19 19 17
14 14 14 13 14 13 13 12 13 13 11 12 11 11 11 7 3 7 7 10 9 12 14 11 2 14 9 5 13 9 22 8 11 8 10 11 8 16 8 9 15 19 20 18 17
14 15 15 14 14 14 13 11 12 13 11 10 11 10 7 8 5 11 8 8 11 12 17 4 16 1 4 11 13 10 12 13 10 12 11 8 8 8 7 7 18 19 18 17 16
16 15 15 15 13 14 13 12 12 13 13 9 8 9 7 12 13 16 14 13 13 14 4 1 5 7 4 2 15 12 13 10 7 12 13 11 9 8 8 9 18 18 17 16 16
15 15 15 15 13 14 14 13 12 13 11 9 6 7 10 10 12 14 15 15 15 14 3 5 8 9 14 7 7 12 10 11 9 11 5 10 6 5 10 11 14 16 15 14 14
16 16 15 15 14 14 13 15 14 12 11 8 5 7 9 4 9 13 14 12 6 9 7 12 9 13 9 15 13 7 10 7 4 7 13 12 11 20 8 13 13 14 14 13 13
17 16 15 15 14 13 13 15 14 10 8 5 7 9 11 4 13 14 13 9 5 7 14 8 11 9 13 13 3 9 1 6 11 12 22 11 9 26 17 15 16 14 13 13 13
17 16 15 15 13 13 14 10 7 6 7 9 11 9 10 11 14 14 12 7 7 10 10 9 13 11 9 5 5 3 3 7 15 3 12 17 19 14 8 15 16 16 16 14 14
16 14 15 14 12 12 12 5 6 7 12 11 8 15 9 12 12 12 11 6 5 7 6 9 7 11 3 13 22 19 17 17 9 7 10 9 6 19 18 21 16 16 15 15 14
16 14 15 12 11 10 7 9 9 13 11 19 9 10 11 12 12 14 13 12 13 11 12 3 12 21 11 20 18 14 5 21 8 17 1 5 8 16 19 22 14 15 17 15 15
17 16 12 10 10 6 12 18 6 8 8 16 10 9 12 13 14 14 16 17 8 9 10 11 10 17 11 9 13 15 15 14 9 14 6 18 13 12 18 11 17 15 17 16 16
17 14 10 8 4 10 15 6 7 4 8 15 14 8 13 18 9 17 17 16 8 14 16 21 14 13 13 3 10 5 7 15 19 13 6 13 4 3 13 17 15 10 15 17 16
16 13 9 7 12 7 6 5 9 4 6 13 14 12 13 17 11 14 17 16 19 17 15 15 7 16 3 6 8 8 19 22 27 27 13 1 13 4 14 15 24 14 14 15 18
16 11 6 6 7 13 3 4 6 8 1 9 11 10 13 15 8 11 14 13 10 13 12 16 5 9 8 9 8 8 20 25 22 7 4 5 5 6 6 6 8 14 16 13 14
15 9 6 9 5 3 6 7 7 9 7 11 11 12 15 15 16 8 11 17 13 14 11 10 12 16 6 16 14 8 14 10 7 2 8 8 10 11 10 27 23 7 8 9 11
17 5 14 8 11 8 6 7 7 2 5 5 4 12 15 15 15 16 11 15 18 17 12 13 13 22 6 7 22 7 14 8 16 16 6 6 7 9 23 23 25 9 10 5 2
17 6 7 8 7 6 8 9 10 6 7 4 7 11 15 16 17 17 15 14 16 16 17 6 11 23 13 17 32 12 12 16 17 18 17 9 6 5 10 19 22 11 9 11 16
5 10 5 7 8 7 7 14 15 9 6 10 12 6 12 14 16 12 13 12 13 17 5 8 3 20 20 14 8 10 13 11 11 6 11 16 5 10 14 17 25 10 5 9 13
6 7 8 8 6 6 10 7 5 5 7 8 12 14 7 14 11 14 16 14 14 9 8 7 12 17 19 12 16 9 12 12 12 9 10 13 6 10 24 26 22 15 9 8 10
9 4 7 6 7 9 11 9 4 10 5 7 7 12 15 14 13 15 8 8 19 6 4 7 13 13 16 15 16 11 15 16 10 11 11 12 4 15 23 20 16 14 11 11 11
7 5 6 8 6 7 7 6 1 11 5 6 5 7 11 9 12 11 15 10 8 6 10 9 11 10 13 13 8 16 13 12 11 14 14 13 5 16 18 14 10 13 11 9 10
7 4 6 6 7 10 7 8 6 7 8 11 10 11 8 10 11 6 15 7 7 1 7 5 14 16 14 21 17 10 19 14 13 12 15 15 5 11 16 15 13 12 14 11 10
6 6 5 3 4 10 7 11 11 6 5 5 6 11 11 13 10 13 8 12 7 10 5 5 14 16 18 21 22 19 20 21 22 18 16 19 23 10 12 16 12 3 11 14 12
7 6 11 9 4 6 5 9 6 10 3 10 7 9 14 7 10 12 16 9 10 7 7 10 12 13 17 18 17 22 21 19 22 23 21 19 15 15 20 16 14 12 12 12 12
7 8 7 6 9 6 3 10 7 12 8 13 12 10 14 14 14 13 14 11 14 14 14 14 12 12 18 21 18 15 18 13 17 15 14 18 8 16 14 17 12 7 7 12 13
Wind_Direction
341 338 342 343 338 337 333 331 333 331 327 322 323 324 324 324 303 237 260 81 169 168 230 246 236 262 253 260 66 173 276 62 100 101 113 126 111 70 92 128 152 84 137 136 145
340 336 341 341 333 332 331 326 328 328 322 318 319 321 325 329 272 256 146 147 148 161 212 223 234 265 256 22 38 72 267 126 142 131 126 96 98 123 127 132 112 126 116 131 149
339 334 340 338 329 329 328 322 323 320 316 315 317 319 322 311 265 16 164 146 164 190 257 225 291 262 286 97 226 171 245 78 134 203 135 124 137 148 136 143 142 126 137 149 153
338 333 337 338 327 324 321 321 315 311 314 313 315 317 317 254 312 119 171 165 175 220 241 250 25 2 291 147 201 154 227 124 163 132 131 108 138 109 95 136 139 138 144 154 161
334 331 331 329 324 316 314 317 309 306 306 308 311 317 280 225 219 137 166 172 188 220 243 323 67 146 310 329 28 287 124 108 124 100 98 161 100 90 87 114 135 140 152 160 169
336 333 331 329 324 311 312 311 303 297 298 299 300 307 250 262 101 148 170 168 206 233 198 147 118 189 277 126 153 281 117 107 116 113 129 108 126 112 115 137 129 149 161 167 173
333 333 331 327 323 313 312 308 299 293 288 288 285 271 258 281 143 168 161 195 204 235 184 211 251 274 187 182 180 247 141 154 140 162 134 151 136 79 138 136 144 158 169 174 179
332 333 331 326 322 312 311 305 296 285 278 267 262 252 275 147 151 182 193 209 151 210 266 265 289 247 128 297 271 104 33 31 142 198 111 85 298 294 172 157 160 171 179 177 183
333 332 330 325 318 310 310 304 292 276 239 207 226 235 257 128 201 193 203 203 193 223 239 285 258 269 274 210 235 36 347 260 250 208 135 123 202 259 237 187 168 181 183 185 177
331 330 329 320 315 312 311 283 292 291 212 204 264 256 221 205 188 190 200 221 197 215 253 249 265 274 274 121 92 37 239 230 282 192 201 182 181 185 235 208 173 178 182 183 186
325 325 324 317 315 318 311 197 194 196 215 230 210 242 152 164 172 187 189 167 262 272 30 324 309 279 155 117 175 195 230 236 158 247 245 166 183 148 174 257 186 176 181 183 199
322 320 319 312 311 316 275 256 5 337 201 239 291 276 133 150 171 191 184 204 204 84 212 333 302 281 267 172 192 201 222 285 222 219 224 285 236 168 197 223 188 189 167 187 192
321 317 309 308 317 263 232 269 331 294 259 198 219 237 150 180 188 185 190 212 75 29 273 197 219 278 244 222 224 100 337 320 302 269 47 25 313 348 297 223 179 194 161 178 192
317 309 304 314 284 209 220 238 266 277 276 156 203 212 167 211 212 176 200 217 114 180 283 287 289 250 266 332 95 94 119 283 290 263 222 166 236 185 344 292 159 200 166 174 189
320 310 291 251 318 233 76 272 321 244 265 137 176 136 176 213 201 205 185 238 258 176 174 216 239 295 18 296 284 172 189 199 239 252 213 88 290 176 258 354 330 186 180 182 181
326 309 282 207 230 272 285 278 237 236 150 161 137 194 205 212 230 183 181 217 266 293 258 267 239 256 252 278 261 186 209 224 225 325 303 87 355 99 19 220 220 221 173 184 183
335 307 222 314 282 191 271 248 224 257 170 150 176 203 218 197 237 189 201 207 218 240 254 301 237 240 315 283 269 233 277 281 212 76 310 78 62 247 172 242 245 151 145 163 185
332 315 217 262 309 285 255 243 263 259 25 52 209 196 212 224 205 226 220 242 239 246 249 243 245 252 221 27 310 194 265 293 293 303 135 258 148 252 215 235 247 72 64 66 326
318 209 224 205 233 275 248 235 229 312 14 350 206 261 202 226 245 206 221 251 251 249 244 15 289 4 300 192 215 266 263 297 303 294 290 159 124 268 60 10 13 67 88 91 62
278 261 125 165 192 228 247 264 306 4 344 310 288 206 269 227 232 232 273 256 246 268 130 170 249 283 235 269 204 244 294 303 286 337 313 307 225 168 152 116 124 284 346 86 78
240 231 122 178 202 232 251 253 349 63 326 287 292 301 269 292 257 237 245 254 261 235 330 334 279 290 293 274 272 246 230 244 249 273 274 286 341 129 151 152 160 175 123 102 88
287 277 132 197 217 220 248 357 1 292 211 265 286 295 308 312 283 294 304 13 15 54 279 307 309 293 285 285 278 257 274 290 301 298 295 305 333 71 140 162 147 131 147 116 107
271 95 149 219 256 260 190 285 297 283 255 271 266 272 304 313 301 296 297 82 57 348 29 344 299 275 260 247 290 339 304 261 290 281 268 278 305 95 93 92 119 124 117 110 103
278 198 153 213 265 284 351 275 300 144 286 300 302 324 308 287 281 274 288 295 145 80 71 315 278 293 293 300 320 310 301 314 295 296 306 306 78 149 132 127 132 136 136 129 123
261 24 17 309 74 350 341 326 299 294 143 305 291 260 277 289 285 281 254 265 196 164 186 245 266 276 292 303 312 311 307 308 307 305 287 298 300 184 107 94 66 152 139 138 139
341 346 344 290 265 278 243 285 306 318 359 297 237 286 306 279 298 298 309 327 328 192 237 266 278 291 280 270 259 271 269 272 268 274 276 280 277 44 102 122 146 183 158 141 152
7 341 289 299 271 249 12 337 341 342 313 280 299 321 309 15 349 330 326 333 313 300 287 285 292 294 287 299 299 283 279 297 316 264 256 262 313 114 84 70 294 203 153 144 132